Other Public Products
Issued by NWS Grand Forks, ND

Home | Current Version | Previous Version | Text Only | Print | Product List | Glossary Off
Versions: 1 2 3 4 5 6 7 8 9 10 11 12 13 14 15 16 17 18 19 20 21 22 23 24 25 26 27 28 29 30 31 32 33 34 35 36 37 38 39 40 41 42 43 44 45 46 47 48 49 50

000
FPUS83 KFGF 312231
OPUFGF
PRAIRIE TO PINES WEATHER ROUNDUP
NATIONAL WEATHER SERVICE EASTERN NORTH DAKOTA/GRAND FORKS ND
400 PM CST SAT JAN 31 2015

 **SATELLITE DATA USED TO AUGMENT SKY COVER AT AUTOMATED STATIONS**
 *****  WEATHER ACROSS EASTERN NORTH DAKOTA  *****

CITY           SKY/WX    TMP DP  RH WIND       PRES   REMARKS
GRAND FORKS    CLOUDY    -1 -10  65 N20       30.45R WCI -23
GRAND FORKS AF PTSUNNY   -2 -12  62 N18       30.45R WCI -23
GRAND CITY NWS   N/A     -2 N/A N/A N16         N/A  WCI -23
BUXTON           N/A      1  -8  66 N20         N/A  WCI -20
DEVILS LAKE    MOSUNNY   -2 -15  55 NE15      30.39R WCI -22
FARGO          CLOUDY    10  -5  50 N22       30.34S WCI -10
WAHPETON ARPT  CLOUDY    16   0  48 N18G24    30.28R WCI  -1
$$

 *****  WEATHER ACROSS CENTRAL AND WESTERN NORTH DAKOTA  *****

CITY           SKY/WX    TMP DP  RH WIND       PRES   REMARKS
JAMESTOWN      CLOUDY     7  -5  57 NE21      30.30R WCI -13
BISMARCK       CLOUDY    11   2  67 NE17      30.28S WCI  -6
MINOT          LGT SNOW   1  -6  72 NE10      30.39R VSB 1   WCI -15
MINOT AFB      CLOUDY     0  -5  78 N13       30.41R WCI -18
GARRISON         N/A      2  -3  80 NE12      30.33R WCI -15
WILLISTON      LGT SNOW   6  -1  73 NE14      30.36R WCI -11
DICKINSON      LGT SNOW  10   6  84 NE18G24   30.15R FOG     WCI  -8
HETTINGER      LGT SNOW  14  11  87 E20G29    30.12R FOG     WCI  -3
$$

 *****  OTHER OBSERVATIONS NORTHEAST NORTH DAKOTA  *****

CITY           SKY/WX    TMP DP  RH WIND       PRES   REMARKS
WALHALLA         N/A     -6 -13  71 N17       30.53R WCI -28
LANGDON        NOT AVBL
CAVALIER       FAIR      -6 -13  71 N18G24    30.52R WCI -29
GRAFTON        NOT AVBL
CANDO          CLOUDY    -6 -15  65 NE18      30.43R WCI -29
FORT TOTTEN      N/A     -2 -14  57 NE7       29.95S WCI -15
ROLLA          FAIR      -8 -15  71 N16       30.40S WCI -30
RUGBY          FAIR      -4 -13  65 NE16      30.43R WCI -25
 ***** THE ABOVE OBSERVATIONS ARE NON NWS ARE NOT QUALITY
        CONTROLLED AND MAY MIS-REPORT RAIN FOR SNOW...
$$

 *****  OTHER OBSERVATIONS SOUTHEAST NORTH DAKOTA *****

CITY           SKY/WX    TMP DP  RH WIND       PRES   REMARKS
COOPERSTOWN    NOT AVBL
VALLEY CITY    CLOUDY     3  -6  66 NE20G25   30.31S WCI -18
OAKES            N/A     10   0  61 NE23      30.27R WCI -10
GWINNER        CLEAR     12   0  57 NE23      30.29R WCI  -7
BUFFALO        NOT AVBL
WYNDMERE         N/A     12  -2  52 N15         N/A  WCI  -4
 ***** THE ABOVE OBSERVATIONS ARE NON NWS ARE NOT QUALITY
       CONTROLLED AND MAY MIS-REPORT RAIN FOR SNOW...
$$

  *****  WEATHER ACROSS NORTHERN MINNESOTA  *****

CITY           SKY/WX    TMP DP  RH WIND       PRES   REMARKS
FLAG ISLAND    CLEAR     -2 -13  60 N12       30.43S WCI -20
WARROAD        CLEAR      1 -11  55 N9        30.43R WCI -14
ROSEAU         CLEAR      3  -9  55 N10       30.42S WCI -12
HALLOCK        SUNNY     -4 -15  59 N16       30.48S WCI -25
THF RVR FALLS  PTSUNNY    1  -9  60 N16       30.39R WCI -18
HALSTAD          N/A      6  -9  49 N21         N/A  WCI -14
FOSSTON        MOSUNNY    5  -2  72 N17       30.33S WCI -14
BAUDETTE       CLEAR      0 -11  59 N14       30.38S WCI -19
WASKISH        PTCLDY     3  -6  66 NW6       30.36R WCI  -8
CROOKSTON      PTSUNNY    3  -8  60 N16       30.42R WCI -16
$$
  *****  WEATHER ACROSS CENTRAL AND WEST MINNESOTA  *****

CITY           SKY/WX    TMP DP  RH WIND       PRES   REMARKS
BEMIDJI        SUNNY      4  -6  63 N12       30.30F WCI -12
PARK RAPIDS    MOSUNNY   15  -6  39 N12       30.23F WCI   2
WADENA         MOSUNNY   18  -4  38 NE12      30.22R WCI   5
DETROIT LAKES  MOSUNNY   18  -2  41 NE12      30.26R WCI   5
MOORHEAD       PTSUNNY   10  -2  56 N21       30.33S WCI  -9
FERGUS FALLS   CLOUDY    16   1  53 N9        30.28R WCI   4
ELBOW LAKE     MOCLDY    22   3  45 NE10      30.21R WCI  11
MORRIS MN      CLOUDY    27   9  46 NE13      30.19S WCI  16
STAPLES        CLOUDY    18  -6  35 NE9G17    30.22R WCI   6
WHEATON        PTSUNNY   18   7  62 N13G20    30.27R WCI   4
$$
  *****  WEATHER ELSEWHERE ACROSS MINNESOTA  *****

CITY           SKY/WX    TMP DP  RH WIND       PRES   REMARKS
DULUTH         CLEAR     18  -2  41 N9        30.22F WCI   7
INTRNTL FALLS  CLEAR      4  -8  57 N12       30.36R WCI -12
ELY            CLEAR      9  -6  52 N5        30.29R WCI   0
CLOQUET        CLEAR     19   1  45 N9        30.23S WCI   9
BRAINERD       PTSUNNY   21   5  50 N12       30.21F WCI   9
HIBBING        CLEAR     14  -3  47 N10       30.27R WCI   1
ALEXANDRIA     CLOUDY    23   2  40 NE12      30.19R WCI  12
SAINT CLOUD    CLOUDY    27  13  55 NE9       30.18S WCI  18
MINNEAPOLIS    CLOUDY    28  17  63 NE9       30.19S WCI  19
$$

  *****  WEATHER ACROSS SOUTH DAKOTA  *****

CITY           SKY/WX    TMP DP  RH WIND       PRES   REMARKS
SIOUX FALLS    LGT SNOW  26  23  88 NE21      30.06S FOG     WCI  12
BROOKINGS      NOT AVBL
WATERTOWN      CLOUDY    18  14  84 NE17G24   30.11F WCI   3
HURON          CLOUDY    22  17  81 NE17      30.12F WCI   8
SISSETON         N/A     18   5  57 NE18      30.23R WCI   2
ABERDEEN       CLOUDY    18   2  49 NE20G26   30.22R WCI   2
MITCHELL       CLOUDY    25  22  88 NE16      30.08F WCI  12
PIERRE         CLOUDY    18  15  88 NE16      30.10S WCI   3
MOBRIDGE       CLOUDY    19   3  49 NE14      30.18R WCI   6
RAPID CITY     FOG       23  22  96 E15       29.97S VSB 1/4 WCI  10
$$

  *****  SOME WEATHER IN NEARBY STATES *****

CITY           SKY/WX    TMP DP  RH WIND       PRES   REMARKS
GLASGOW MT     LGT SNOW  10   4  76 NE17G26   30.30R VSB 1   WCI  -8
GREAT FALLS MT LGT SNOW  13   8  81 NW16      30.29R VSB 3/4 WCI  -3
CHEYENNE WY    CLOUDY    39  27  62 E6        29.77S
SCOTTSBLUFF NE LGT SNOW  32  30  92 N7        29.86R FOG
OMAHA NE       LGT SNOW  33  32  96 SE10      29.98F FOG     WCI  25
DES MOINES IA  LGT RAIN  38  35  89 S9        30.08F
DAVENPORT IA   LGT RAIN  35  32  88 SW7       30.16R FOG
CHICAGO IL     CLOUDY    36  26  67 W6        30.16S
EAU CLAIRE WI  CLOUDY    28  18  66 NE3       30.19R
LA CROSSE WI   CLOUDY    32  23  69 N3        30.16F
$$

  *****  SOME NATIONAL WEATHER *****

CITY           SKY/WX    TMP DP  RH WIND       PRES   REMARKS
LA GUARDIA NY  CLEAR     25   5  42 NW23G31   30.13R WCI  10
RALEIGH NC     PTCLDY    46   7  20 W3        30.29R
ATLANTA GA     PTSUNNY   53  13  20 CALM      30.28F
NEW ORLEANS LA PTSUNNY   59  48  67 E13       30.18F
OKLAHOMA CITY  LGT RAIN  42  39  89 S10       29.97R FOG
ALBUQUERQUE NM CLOUDY    40  35  83 CALM      29.89S FOG
SALT LAKE CITY MOSUNNY   46  28  49 NW10      30.04F
LOS ANGELES CA MOSUNNY   64  55  72 W13       29.89S
BOISE ID       SUNNY     47  31  53 NW14      30.15R
SEATTLE WA     CLOUDY    45  39  81 NE3       30.18F
$$

*** WEATHER ACROSS MANITOBA...SASKATCHEWAN AND ONTARIO ***
                ***ONTARIO***

CITY           SKY/WX    TMP DP  RH WIND       PRES   REMARKS
GERALDTON      CLEAR     -9 -18  64 NW7       30.30R WCI -24
THUNDER BAY    PTCLDY     7 -11  43 NW15      30.36R WCI -11
SIOUX LOOKOUT  CLEAR     -8 -18  59 NW6       30.40R WCI -21
TORONTO        CLOUDY    25  16  68 SW14      30.16S WCI  13
BIG TROUT LK   CLEAR    -17 -26  63 W12       30.35S WCI -38
PICKLE LAKE    CRYSTALS -11 -22  58 W9G17     30.35R WCI -29
DRYDEN         CLEAR     -6 -18  54 N6        30.39R WCI -18
KENORA         PTCLDY    -6 -17  59 N9        30.42R WCI -22
$$
                *** MANITOBA***

CITY           SKY/WX    TMP DP  RH WIND       PRES   REMARKS
BRANDON        PTSUNNY   -9 -20  59 NE9       30.53S WCI -27
DAUPHIN        SUNNY    -11 -22  58 W3        30.62S
ISLAND LAKE    CLEAR    -17 -26  63 W9        30.49R WCI -36
PILOT MOUND      N/A    -11 -22  58 N12         N/A  WCI -31
THE PAS        PTCLDY   -11 -22  58 W9        30.62F WCI -29
THOMPSON       CRYSTALS -13 -26  53 W10       30.51F WCI -32
WINNIPEG       PTCLDY    -9 -22  54 N18       30.58S WCI -33
LYNN LAKE      CLEAR    -18 -29  57 W10       30.49F WCI -39
CHURCHILL      PTCLDY   -20 -27  69 NW22      30.36S WCI -50
GILLAM         CLEAR    -18 -27  63 W12       30.44S WCI -40
$$
                ***SASKATCHEWAN***

CITY           SKY/WX    TMP DP  RH WIND       PRES   REMARKS
ESTEVAN        PTSUNNY   -2 -11  65 NE10      30.44R WCI -19
KINDERSLEY     CLOUDY    -4  -9  77 NE5       30.51  WCI -15
LLOYDMINSTER   PTSUNNY   -2 -11  65 S5        30.48F WCI -12
PRINCE ALBERT  CLOUDY    -9 -22  54 N5        30.61F WCI -21
REGINA         CLOUDY    -2 -13  60 NE9       30.48S WCI -18
YORKTON        SUNNY    -13 -22  64 N10       30.54S WCI -32


USA.gov is the U.S. government's official web portal to all federal, state and local government web resources and services.